Kineis-5A

operational
NORAD ID: 62084 Int'l Des: 2024-219 Owner: KINEIS Country: F
LEOCIRCULARRETROGRADESSO

Kineis-5Aについて

説明を読み込み中...

リアルタイム位置

3D地球を読み込み中...

次回通過

高度履歴

Altitude vs Time

uPlot chart will show altitude changes over time

軌道要素

1 62084U 24219D 26062.86950514 .00001120 00000-0 18557-3 0 9995
2 62084 97.9792 224.7122 0001221 235.1802 124.9290 14.72175601 68276
Epoch: Mar 3, 2026 • Age: 25 hours

現在のステータス

高度 661.1 km
速度 7.53 km/s
衛星直下点 44.82°N, 120.08°W
打ち上げ日 Nov 25, 2024
運用期間 1.2 years
タイプ other

技術仕様

分類 Payload
質量 28.00 kg
乾燥質量 28.00 kg
総質量 28.00 kg
長さ 0.40 m
直径 0.20 m
スパン 1.60 m
形状 Box+ 2 pan + ant
製造者 KINEIS
バスタイプ Cubesat 16U
フェーズステータス In Orbit
所有者/国 KINEIS/F

大規模コンステレーション

Loading constellations...